CW4957 Weather Reports


Display with metric or nautical units.
time (UTC)temp
F
wind
direction
speed
MPH
gust
MPH
rain 1hr
in
rain 24hr
in
rain mn
in
humidity
%
barometer
mb
20260904225326 77 153 0.0 0.0 0.00 0.00 0.00 59 1008.5
20260904224749 77 153 0.0 0.0 0.00 0.00 0.00 58 1008.5
20260904224253 77 153 0.0 0.0 0.00 0.00 0.00 58 1008.5
20260904223802 77 153 0.0 0.0 0.00 0.00 0.00 57 1008.4
20260904223255 77 153 0.0 0.0 0.00 0.00 0.00 56 1008.4
20260904222801 77 153 0.0 0.0 0.00 0.00 0.00 56 1008.4
20260904222250 78 153 0.0 0.0 0.00 0.00 0.00 55 1008.4
20260904221818 78 153 0.0 0.0 0.00 0.00 0.00 55 1008.4
20260904221305 78 153 0.0 2.0 0.00 0.00 0.00 54 1008.4
20260904220750 78 153 0.0 2.0 0.00 0.00 0.00 53 1008.4
20260904220255 78 42 0.0 0.0 0.00 0.00 0.00 53 1008.4
20260904215757 78 42 0.0 1.0 0.00 0.00 0.00 53 1008.4
20260904215258 79 42 0.0 1.0 0.00 0.00 0.00 53 1008.4
20260904214749 79 42 0.0 1.0 0.00 0.00 0.00 52 1008.4
20260904214255 79 42 0.0 1.0 0.00 0.00 0.00 52 1008.4
20260904213758 79 42 0.0 1.0 0.00 0.00 0.00 51 1008.4
20260904213302 79 44 0.0 1.0 0.00 0.00 0.00 52 1008.4
20260904212747 80 44 0.0 1.0 0.00 0.00 0.00 52 1008.4
20260904212258 80 44 0.0 0.0 0.00 0.00 0.00 52 1008.5
20260904211808 80 44 0.0 0.0 0.00 0.00 0.00 52 1008.5
20260904211257 81 44 0.0 0.0 0.00 0.00 0.00 50 1008.5
20260904210808 81 44 0.0 0.0 0.00 0.00 0.00 48 1008.4
20260904210258 81 44 0.0 1.0 0.00 0.00 0.00 47 1008.4
20260904205804 81 44 0.0 1.0 0.00 0.00 0.00 47 1008.4
20260904205251 82 48 0.0 1.0 0.00 0.00 0.00 48 1008.4
20260904204756 82 48 0.0 1.0 0.00 0.00 0.00 47 1008.4
20260904204304 82 34 0.0 2.0 0.00 0.00 0.00 48 1008.4
20260904203751 83 55 0.0 2.0 0.00 0.00 0.00 47 1008.3
20260904203303 83 55 0.0 0.0 0.00 0.00 0.00 48 1008.3
20260904202749 84 55 0.0 0.0 0.00 0.00 0.00 46 1008.3
20260904202251 84 55 0.0 0.0 0.00 0.00 0.00 46 1008.2
20260904201749 85 55 0.0 1.0 0.00 0.00 0.00 44 1008.2
20260904201254 85 84 0.0 1.0 0.00 0.00 0.00 46 1008.2
20260904200758 86 134 0.0 1.0 0.00 0.00 0.00 44 1008.4
20260904200325 86 135 0.0 3.0 0.00 0.00 0.00 44 1008.4
20260904195749 87 192 0.0 3.0 0.00 0.00 0.00 44 1008.4
20260904195255 87 325 0.0 2.0 0.00 0.00 0.00 42 1008.4
20260904194804 87 312 0.0 4.0 0.00 0.00 0.00 43 1008.4
20260904194317 87 225 1.0 3.0 0.00 0.00 0.00 42 1008.4
20260904193800 87 263 0.0 5.0 0.00 0.00 0.00 43 1008.4
20260904193308 87 263 1.0 5.0 0.00 0.00 0.00 42 1008.4
20260904192757 87 287 0.0 2.0 0.00 0.00 0.00 47 1008.4
20260904192306 86 288 0.0 2.0 0.00 0.00 0.00 43 1008.4
20260904191750 86 254 0.0 3.0 0.00 0.00 0.00 47 1008.4
20260904191254 86 269 0.0 4.0 0.00 0.00 0.00 45 1008.4
20260904190800 85 323 0.0 4.0 0.00 0.00 0.00 43 1008.5
20260904190319 85 281 0.0 3.0 0.00 0.00 0.00 47 1008.5
20260904185805 84 314 0.0 2.0 0.00 0.00 0.00 48 1008.5
20260904185316 84 55 0.0 2.0 0.00 0.00 0.00 49 1008.7
20260904184803 84 55 0.0 2.0 0.00 0.00 0.00 46 1008.7
20260904184305 84 55 1.0 2.0 0.00 0.00 0.00 43 1008.7
20260904183759 85 55 0.0 4.0 0.00 0.00 0.00 47 1008.9
20260904183308 85 55 0.0 4.0 0.00 0.00 0.00 47 1008.9
20260904182756 85 60 2.0 3.0 0.00 0.00 0.00 44 1008.9
20260904182321 85 45 1.0 3.0 0.00 0.00 0.00 46 1008.9
20260904181811 85 45 0.0 1.0 0.00 0.00 0.00 49 1008.9
20260904181310 85 46 0.0 3.0 0.00 0.00 0.00 52 1008.9
20260904180752 85 261 0.0 4.0 0.00 0.00 0.00 46 1008.9
20260904180258 84 229 1.0 4.0 0.00 0.00 0.00 46 1008.9
20260904175800 83 45 0.0 3.0 0.00 0.00 0.00 49 1008.9
20260904175251 83 46 1.0 3.0 0.00 0.00 0.00 49 1008.9
20260904174800 83 35 1.0 3.0 0.00 0.00 0.00 49 1008.9
20260904174308 83 44 0.0 2.0 0.00 0.00 0.00 46 1008.9
20260904173757 83 267 0.0 3.0 0.00 0.00 0.00 46 1008.8
20260904173322 83 24 1.0 3.0 0.00 0.00 0.00 46 1008.8
20260904172827 83 46 0.0 2.0 0.00 0.00 0.00 46 1008.8
20260904172250 83 37 0.0 4.0 0.00 0.00 0.00 47 1008.9
20260904171815 83 41 1.0 3.0 0.00 0.00 0.00 48 1008.9
20260904171300 83 40 0.0 3.0 0.00 0.00 0.00 48 1008.9
20260904170823 83 221 0.0 3.0 0.00 0.00 0.00 50 1008.9
20260904170304 83 44 0.0 3.0 0.00 0.00 0.00 49 1008.9
20260904165752 83 36 1.0 3.0 0.00 0.00 0.00 48 1008.9
20260904165259 83 36 1.0 4.0 0.00 0.00 0.00 49 1008.9
20260904164805 83 350 1.0 5.0 0.00 0.00 0.00 49 1008.9
20260904164250 82 350 0.0 2.0 0.00 0.00 0.00 56 1008.9
20260904163757 82 342 0.0 2.0 0.00 0.00 0.00 52 1009.1
20260904163302 81 333 0.0 1.0 0.00 0.00 0.00 53 1009.1
20260904162805 81 333 0.0 2.0 0.00 0.00 0.00 54 1009.1
20260904162306 81 19 0.0 3.0 0.00 0.00 0.00 56 1009.2
20260904161806 80 13 0.0 3.0 0.00 0.00 0.00 57 1009.2
20260904161254 80 331 0.0 4.0 0.00 0.00 0.00 59 1009.2
20260904160822 79 57 0.0 4.0 0.00 0.00 0.00 56 1009.4
20260904160328 79 221 0.0 2.0 0.00 0.00 0.00 62 1009.4
20260904155756 79 206 0.0 1.0 0.00 0.00 0.00 61 1009.4
20260904155259 79 206 0.0 3.0 0.00 0.00 0.00 62 1009.5
20260904154817 79 206 0.0 3.0 0.00 0.00 0.00 66 1009.5
20260904154304 79 81 0.0 0.0 0.00 0.00 0.00 68 1009.5
20260904153749 79 80 0.0 0.0 0.00 0.00 0.00 68 1009.6
20260904153255 78 81 0.0 0.0 0.00 0.00 0.00 66 1009.6
20260904152757 78 57 0.0 0.0 0.00 0.00 0.00 69 1009.6
20260904152306 78 57 0.0 0.0 0.00 0.00 0.00 71 1009.9
20260904151748 77 57 0.0 0.0 0.00 0.00 0.00 71 1009.9
20260904151316 77 57 0.0 0.0 0.00 0.00 0.00 73 1009.9
20260904150801 76 57 0.0 0.0 0.00 0.00 0.00 77 1009.9
20260904150246 76 57 0.0 0.0 0.00 0.00 0.00 81 1009.9
20260904145815 75 57 0.0 0.0 0.00 0.00 0.00 81 1009.9
20260904145300 75 57 0.0 0.0 0.00 0.00 0.00 83 1009.9
20260904144807 75 57 0.0 0.0 0.00 0.00 0.00 83 1009.9
20260904144254 74 57 0.0 0.0 0.00 0.00 0.00 84 1009.9
20260904143801 74 57 0.0 0.0 0.00 0.00 0.00 86 1010.1
20260904143326 73 57 0.0 0.0 0.00 0.00 0.00 88 1010.1
20260904142753 73 57 0.0 0.0 0.00 0.00 0.00 89 1010.1
20260904142256 72 57 0.0 0.0 0.00 0.00 0.00 92 1010.1
20260904141825 72 42 0.0 0.0 0.00 0.00 0.00 93 1010.1
20260904141253 71 42 0.0 0.0 0.00 0.00 0.00 95 1010.1
20260904140754 70 42 0.0 0.0 0.00 0.00 0.00 95 1010.1
20260904140305 70 40 0.0 0.0 0.00 0.00 0.00 96 1010.1
20260904135751 69 40 0.0 0.0 0.00 0.00 0.00 96 1010.1
20260904135255 69 43 0.0 0.0 0.00 0.00 0.00 97 1010.2
20260904134801 69 43 0.0 0.0 0.00 0.00 0.00 97 1010.2
20260904134303 68 36 0.0 0.0 0.00 0.00 0.00 97 1010.2
20260904133747 68 36 0.0 0.0 0.00 0.00 0.00 97 1010.3
20260904133301 68 36 0.0 0.0 0.00 0.00 0.00 97 1010.3
20260904132800 67 36 0.0 0.0 0.00 0.00 0.00 97 1010.3
20260904132306 67 36 0.0 0.0 0.00 0.00 0.00 97 1010.2
20260904131759 66 36 0.0 0.0 0.00 0.00 0.00 97 1010.2
20260904131254 66 36 0.0 0.0 0.00 0.00 0.00 98 1010.2
20260904130749 66 36 0.0 0.0 0.00 0.00 0.00 97 1010.2
20260904130300 65 36 0.0 0.0 0.00 0.00 0.00 97 1010.2
20260904125801 65 36 0.0 0.0 0.00 0.00 0.00 97 1010.2
20260904125259 65 36 0.0 0.0 0.00 0.00 0.00 97 1010.2
20260904124801 64 36 0.0 0.0 0.00 0.00 0.00 97 1010.2
20260904124259 64 36 0.0 0.0 0.00 0.00 0.00 97 1010.2
20260904123759 64 36 0.0 0.0 0.00 0.00 0.00 97 1010.3
20260904123302 64 36 0.0 0.0 0.00 0.00 0.00 97 1010.3
20260904122749 63 36 0.0 0.0 0.00 0.00 0.00 97 1010.3
20260904122306 63 36 0.0 0.0 0.00 0.00 0.00 97 1010.1
20260904121749 62 36 0.0 0.0 0.00 0.00 0.00 97 1010.1
20260904121255 62 36 0.0 1.0 0.00 0.00 0.00 97 1010.1
20260904120745 62 36 0.0 1.0 0.00 0.00 0.00 96 1009.9
20260904120314 61 36 0.0 1.0 0.00 0.00 0.00 96 1009.9
20260904115804 61 36 0.0 1.0 0.00 0.00 0.00 96 1009.9
20260904115254 61 36 0.0 0.0 0.00 0.00 0.00 96 1009.7
20260904114800 61 36 0.0 0.0 0.00 0.00 0.00 96 1009.7
20260904114250 61 36 0.0 0.0 0.00 0.00 0.00 96 1009.7
20260904113751 61 36 0.0 0.0 0.00 0.00 0.00 95 1009.6
20260904113256 61 36 0.0 0.0 0.00 0.00 0.00 95 1009.6
20260904112807 61 36 0.0 0.0 0.00 0.00 0.00 95 1009.6
20260904112256 61 36 0.0 0.0 0.00 0.00 0.00 95 1009.8
20260904111800 61 36 0.0 0.0 0.00 0.00 0.00 95 1009.8
20260904111254 61 36 0.0 0.0 0.00 0.00 0.00 95 1009.8
20260904110758 61 36 0.0 0.0 0.00 0.00 0.00 95 1009.7
20260904110301 61 36 0.0 0.0 0.00 0.00 0.00 95 1009.7
20260904105823 61 36 0.0 0.0 0.00 0.00 0.00 95 1009.7
20260904105307 61 36 0.0 0.0 0.00 0.00 0.00 95 1009.8
20260904104756 61 36 0.0 0.0 0.00 0.00 0.00 95 1009.8
20260904104259 61 36 0.0 0.0 0.00 0.00 0.00 95 1009.8
20260904103807 61 36 0.0 0.0 0.00 0.00 0.00 95 1009.8
20260904103315 61 36 0.0 0.0 0.00 0.00 0.00 95 1009.8
20260904102804 61 36 0.0 0.0 0.00 0.00 0.00 95 1009.8
20260904102251 61 36 0.0 0.0 0.00 0.00 0.00 95 1009.5
20260904101758 62 36 0.0 0.0 0.00 0.00 0.00 95 1009.5
20260904101323 62 36 0.0 0.0 0.00 0.00 0.00 95 1009.5
20260904100751 62 36 0.0 0.0 0.00 0.00 0.00 95 1009.4
20260904100253 62 36 0.0 0.0 0.00 0.00 0.00 95 1009.4
20260904095802 62 36 0.0 0.0 0.00 0.00 0.00 95 1009.4
20260904095250 62 36 0.0 0.0 0.00 0.01 0.00 95 1009.4
20260904094753 62 36 0.0 0.0 0.00 0.01 0.00 95 1009.4
20260904094304 62 36 0.0 0.0 0.00 0.01 0.00 95 1009.4
20260904093752 62 36 0.0 0.0 0.00 0.01 0.00 95 1009.4
20260904093317 62 36 0.0 0.0 0.00 0.01 0.00 95 1009.4
20260904092801 63 36 0.0 0.0 0.00 0.01 0.00 95 1009.4
20260904092307 63 36 0.0 0.0 0.00 0.01 0.00 95 1009.1
20260904091753 63 36 0.0 0.0 0.00 0.01 0.00 95 1009.1
20260904091302 63 36 0.0 0.0 0.00 0.01 0.00 95 1009.1
20260904090749 63 36 0.0 0.0 0.00 0.01 0.00 95 1009.2
20260904090315 63 36 0.0 0.0 0.00 0.01 0.00 95 1009.2
20260904085751 63 36 0.0 0.0 0.00 0.01 0.00 95 1009.2
20260904085259 63 36 0.0 0.0 0.00 0.01 0.00 95 1009.0
20260904084802 63 36 0.0 0.0 0.00 0.01 0.00 95 1009.0
20260904084307 64 36 0.0 0.0 0.00 0.01 0.00 95 1009.0
20260904083752 64 36 0.0 0.0 0.00 0.01 0.00 95 1009.0
20260904083318 64 36 0.0 0.0 0.00 0.01 0.00 95 1009.0
20260904082821 64 36 0.0 0.0 0.00 0.01 0.00 95 1009.0
20260904082306 64 36 0.0 0.0 0.00 0.01 0.00 95 1009.0
20260904081749 64 36 0.0 0.0 0.00 0.01 0.00 95 1009.0
20260904081257 64 36 0.0 0.0 0.00 0.01 0.00 95 1009.0
20260904080827 64 36 0.0 0.0 0.00 0.01 0.00 95 1009.2
20260904080250 64 36 0.0 0.0 0.00 0.01 0.00 95 1009.2
20260904075757 64 36 0.0 0.0 0.00 0.01 0.00 95 1009.2
20260904075306 64 36 0.0 0.0 0.00 0.02 0.00 95 1009.4
20260904074807 64 36 0.0 0.0 0.00 0.02 0.00 95 1009.4
20260904074328 64 36 0.0 0.0 0.00 0.02 0.00 95 1009.4
20260904073815 64 36 0.0 0.0 0.00 0.02 0.00 95 1009.5
20260904073300 64 36 0.0 0.0 0.00 0.02 0.00 95 1009.5
20260904072806 64 36 0.0 0.0 0.00 0.02 0.00 95 1009.5
20260904072254 64 36 0.0 0.0 0.00 0.02 0.00 95 1009.8
20260904071801 64 36 0.0 0.0 0.00 0.02 0.00 95 1009.8
20260904071308 64 36 0.0 0.0 0.00 0.02 0.00 94 1009.8
20260904070755 64 36 0.0 0.0 0.00 0.02 0.00 94 1009.7
20260904070300 65 36 0.0 0.0 0.00 0.02 0.00 94 1009.7
20260904065805 65 36 0.0 0.0 0.00 0.02 0.00 94 1009.7
20260904065254 65 36 0.0 0.0 0.00 0.02 0.00 94 1009.6
20260904064804 65 36 0.0 0.0 0.00 0.02 0.00 94 1009.6
20260904064249 65 36 0.0 0.0 0.00 0.02 0.00 94 1009.6
20260904063758 65 36 0.0 0.0 0.00 0.02 0.00 94 1009.7
20260904063325 65 36 0.0 0.0 0.00 0.02 0.00 94 1009.7
20260904062824 65 36 0.0 0.0 0.00 0.02 0.00 94 1009.7
20260904062308 65 36 0.0 0.0 0.00 0.02 0.00 94 1009.9
20260904061752 65 36 0.0 0.0 0.00 0.02 0.00 94 1009.9
20260904061317 65 36 0.0 0.0 0.00 0.02 0.00 94 1009.9
20260904060808 65 36 0.0 0.0 0.00 0.02 0.00 94 1009.9
20260904060255 65 36 0.0 0.0 0.00 0.02 0.00 94 1009.9
20260904055800 66 36 0.0 0.0 0.00 0.02 0.00 94 1009.9
20260904055307 66 36 0.0 0.0 0.00 0.02 0.00 94 1010.0
20260904054818 66 36 0.0 0.0 0.00 0.02 0.00 94 1010.0
20260904054302 66 36 0.0 0.0 0.00 0.02 0.00 94 1010.0
20260904053756 66 36 0.0 0.0 0.00 0.02 0.00 94 1010.4
20260904053303 66 36 0.0 0.0 0.00 0.02 0.00 94 1010.4
20260904052807 66 36 0.0 0.0 0.00 0.02 0.00 94 1010.4
20260904052251 66 36 0.0 0.0 0.00 0.02 0.00 94 1010.5
20260904051800 66 36 0.0 0.0 0.00 0.02 0.00 94 1010.5
20260904051402 67 36 0.0 0.0 0.00 0.02 0.00 94 1010.5
20260904050755 67 36 0.0 0.0 0.00 0.02 0.00 94 1010.7
20260904050300 67 36 0.0 0.0 0.00 0.02 0.00 94 1010.7
20260904045748 67 36 0.0 0.0 0.00 0.02 0.00 94 1010.7
20260904045255 67 36 0.0 0.0 0.00 0.02 0.00 93 1010.6
20260904044759 67 36 0.0 0.0 0.00 0.02 0.00 93 1010.6
20260904044251 67 36 0.0 0.0 0.00 0.02 0.00 93 1010.6
20260904043759 67 36 0.0 0.0 0.00 0.02 0.00 93 1010.6
20260904043308 67 36 0.0 0.0 0.00 0.02 0.00 93 1010.6
20260904042750 68 36 0.0 0.0 0.00 0.02 0.00 93 1010.6
20260904042258 68 36 0.0 0.0 0.00 0.02 0.00 93 1010.5
20260904041750 68 36 0.0 0.0 0.00 0.02 0.00 93 1010.5
20260904041253 68 36 0.0 0.0 0.00 0.02 0.00 93 1010.5
20260904040802 68 36 0.0 0.0 0.00 0.02 0.00 93 1010.7
20260904040305 68 36 0.0 0.0 0.00 0.02 0.00 93 1010.7
20260904035749 68 36 0.0 0.0 0.00 0.02 0.00 93 1010.7
20260904035252 69 36 0.0 0.0 0.00 0.02 0.02 93 1010.9
20260904034801 69 36 0.0 0.0 0.00 0.02 0.02 93 1010.9
20260904034309 69 36 0.0 0.0 0.00 0.02 0.02 93 1010.9
20260904033810 69 36 0.0 0.0 0.00 0.02 0.02 93 1010.9
20260904033300 69 36 0.0 0.0 0.00 0.02 0.02 93 1010.9
20260904032806 69 36 0.0 1.0 0.00 0.02 0.02 93 1010.9
20260904032254 69 36 0.0 1.0 0.00 0.02 0.02 93 1010.9
20260904031823 69 36 0.0 1.0 0.00 0.02 0.02 93 1010.9
20260904031307 70 36 0.0 0.0 0.00 0.02 0.02 93 1010.9
20260904030757 70 36 0.0 1.0 0.00 0.02 0.02 93 1011.1
20260904030319 70 36 0.0 1.0 0.00 0.02 0.02 93 1011.1
20260904025805 70 36 0.0 0.0 0.00 0.02 0.02 92 1011.1
20260904025251 70 36 0.0 0.0 0.00 0.02 0.02 93 1011.0
20260904024815 70 36 0.0 0.0 0.00 0.02 0.02 93 1011.0
20260904024257 70 36 0.0 0.0 0.00 0.02 0.02 93 1011.0
20260904023758 70 36 0.0 0.0 0.00 0.02 0.02 92 1011.0
20260904023307 70 36 0.0 0.0 0.00 0.02 0.02 92 1011.0
20260904022802 71 36 0.0 1.0 0.00 0.02 0.02 92 1011.0
20260904022251 71 36 0.0 1.0 0.00 0.02 0.02 92 1011.1
20260904021758 71 36 0.0 1.0 0.00 0.02 0.02 92 1011.1
20260904021304 71 36 0.0 1.0 0.00 0.02 0.02 92 1011.1
20260904020753 71 36 0.0 1.0 0.00 0.02 0.02 92 1011.0
20260904020319 71 36 0.0 1.0 0.00 0.02 0.02 92 1011.0
20260904015805 71 36 0.0 0.0 0.00 0.02 0.02 91 1011.0
20260904015311 71 36 0.0 0.0 0.00 0.02 0.02 91 1011.4
20260904014755 72 36 0.0 0.0 0.00 0.02 0.02 91 1011.4
20260904014256 72 36 0.0 0.0 0.00 0.02 0.02 91 1011.4
20260904013803 72 36 0.0 0.0 0.00 0.02 0.02 91 1011.3
20260904013248 72 36 0.0 0.0 0.00 0.02 0.02 90 1011.3
20260904012755 72 36 0.0 0.0 0.00 0.02 0.02 90 1011.3
20260904012258 72 36 0.0 0.0 0.00 0.02 0.02 91 1011.4
20260904011800 72 36 0.0 0.0 0.00 0.02 0.02 91 1011.4
20260904011252 72 36 0.0 0.0 0.00 0.02 0.02 91 1011.4
20260904010801 72 36 0.0 0.0 0.00 0.02 0.02 90 1011.3
20260904010328 73 36 0.0 0.0 0.00 0.02 0.02 91 1011.3
20260904005750 73 36 0.0 0.0 0.00 0.02 0.02 91 1011.3
20260904005254 73 36 0.0 0.0 0.00 0.02 0.02 90 1011.1
20260904004806 73 36 0.0 0.0 0.00 0.02 0.02 90 1011.1
20260904004313 73 36 0.0 0.0 0.00 0.02 0.02 90 1011.1
20260904003818 73 36 0.0 0.0 0.00 0.02 0.02 90 1010.9
20260904003303 73 36 0.0 0.0 0.00 0.02 0.02 89 1010.9
20260904002750 73 36 0.0 0.0 0.00 0.02 0.02 89 1010.9
20260904002254 74 36 0.0 0.0 0.00 0.02 0.02 89 1010.7
20260904001802 74 36 0.0 0.0 0.00 0.02 0.02 88 1010.7
20260904001254 74 36 0.0 0.0 0.00 0.02 0.02 88 1010.7
20260904000802 74 36 0.0 0.0 0.00 0.02 0.02 88 1010.4
20260904000306 74 36 0.0 1.0 0.00 0.02 0.02 88 1010.4
20260903235753 74 36 0.0 1.0 0.00 0.02 0.02 88 1010.4
20260903235259 74 36 0.0 1.0 0.00 0.02 0.02 87 1010.2
20260903234750 75 36 0.0 2.0 0.00 0.02 0.02 87 1010.2
20260903234318 75 36 0.0 2.0 0.00 0.02 0.02 87 1010.2
20260903233806 75 36 0.0 0.0 0.00 0.02 0.02 86 1010.3
20260903233249 75 36 0.0 0.0 0.00 0.02 0.02 85 1010.3
20260903232755 76 36 0.0 0.0 0.00 0.02 0.02 86 1010.3
20260903232305 76 36 0.0 0.0 0.00 0.02 0.02 85 1010.1
20260903231811 76 36 0.0 0.0 0.00 0.02 0.02 85 1010.1
20260903231316 76 36 0.0 1.0 0.00 0.02 0.02 85 1010.1
20260903230757 76 36 0.0 1.0 0.00 0.02 0.02 85 1010.4
20260903230255 76 36 0.0 0.0 0.00 0.02 0.02 84 1010.4
20260903225750 77 36 0.0 1.0 0.00 0.02 0.02 84 1010.4